Time,TemperatureF,DewpointF,PressureIn,WindDirection,WindDirectionDegrees,WindSpeedMPH,WindSpeedGustMPH,Humidity,HourlyPrecipIn,Conditions,Clouds,dailyrainin,SoftwareType,DateUTC
2013-06-16 05:26:00,61.9,54.9,29.65,North,-999,0.0,0.0,78,0.00,,,-99.99,FreeWX 2.04,2013-06-16 09:26:00,
2013-06-16 07:10:00,62.2,55.9,29.68,North,-999,0.0,0.0,80,0.00,,,-99.99,FreeWX 2.04,2013-06-16 11:10:00,
2013-06-16 07:15:00,62.2,55.9,29.68,North,-999,0.0,0.0,80,0.00,,,-99.99,FreeWX 2.04,2013-06-16 11:15:00,
2013-06-16 07:20:00,62.2,55.9,29.68,North,-999,0.0,0.0,80,0.00,,,-99.99,FreeWX 2.04,2013-06-16 11:20:00,
2013-06-16 07:25:00,62.4,56.1,29.68,North,-999,0.0,0.0,80,0.00,,,-99.99,FreeWX 2.04,2013-06-16 11:25:00,
2013-06-16 07:30:00,62.6,56.7,29.68,North,-999,0.0,0.0,81,0.00,,,-99.99,FreeWX 2.04,2013-06-16 11:30:00,
2013-06-16 07:35:00,62.6,56.7,29.68,North,-999,0.0,0.0,81,0.00,,,-99.99,FreeWX 2.04,2013-06-16 11:35:00,
2013-06-16 07:40:00,62.6,56.7,29.68,North,-999,0.0,0.0,81,0.00,,,-99.99,FreeWX 2.04,2013-06-16 11:40:00,
2013-06-16 07:45:00,62.8,56.8,29.68,North,-999,0.0,0.0,81,0.00,,,-99.99,FreeWX 2.04,2013-06-16 11:45:00,
2013-06-16 07:50:00,63.0,57.0,29.68,North,-999,0.0,0.0,81,0.00,,,-99.99,FreeWX 2.04,2013-06-16 11:50:00,
2013-06-16 07:55:00,63.5,57.9,29.68,North,-999,0.0,0.0,82,0.00,,,-99.99,FreeWX 2.04,2013-06-16 11:55:00,
2013-06-16 08:00:00,64.2,58.6,29.68,North,-999,0.0,0.0,82,0.00,,,-99.99,FreeWX 2.04,2013-06-16 12:00:00,
2013-06-16 08:05:00,64.6,59.0,29.68,North,-999,0.0,0.0,82,0.00,,,-99.99,FreeWX 2.04,2013-06-16 12:05:00,
2013-06-16 08:10:00,64.9,59.4,29.68,North,-999,0.0,0.0,82,0.00,,,-99.99,FreeWX 2.04,2013-06-16 12:10:00,
2013-06-16 08:15:00,65.7,60.1,29.68,North,-999,0.0,0.0,82,0.00,,,-99.99,FreeWX 2.04,2013-06-16 12:15:00,
2013-06-16 08:20:00,66.0,60.4,29.68,North,-999,0.0,0.0,82,0.00,,,-99.99,FreeWX 2.04,2013-06-16 12:20:00,
2013-06-16 08:25:00,66.7,61.0,29.68,North,-999,0.0,0.0,82,0.00,,,-99.99,FreeWX 2.04,2013-06-16 12:25:00,
2013-06-16 08:30:00,67.1,61.3,29.68,North,-999,0.0,0.0,82,0.00,,,-99.99,FreeWX 2.04,2013-06-16 12:30:00,
2013-06-16 08:35:00,67.5,61.3,29.68,North,-999,0.0,4.0,81,0.00,,,-99.99,FreeWX 2.04,2013-06-16 12:35:00,
2013-06-16 08:40:00,67.3,61.2,29.65,North,-999,0.0,0.0,81,0.00,,,-99.99,FreeWX 2.04,2013-06-16 12:40:00,
2013-06-16 08:45:00,67.8,61.7,29.65,North,-999,0.0,3.1,81,0.00,,,-99.99,FreeWX 2.04,2013-06-16 12:45:00,
2013-06-16 08:50:00,68.9,63.1,29.65,North,-999,0.0,0.0,82,0.00,,,-99.99,FreeWX 2.04,2013-06-16 12:50:00,
2013-06-16 08:55:00,70.0,64.6,29.65,North,-999,0.0,0.0,83,0.00,,,-99.99,FreeWX 2.04,2013-06-16 12:55:00,
2013-06-16 09:00:00,70.0,64.2,29.65,North,-999,0.0,2.7,82,0.00,,,-99.99,FreeWX 2.04,2013-06-16 13:00:00,
2013-06-16 09:05:00,69.4,62.6,29.65,North,-999,0.0,6.3,79,0.00,,,-99.99,FreeWX 2.04,2013-06-16 13:05:00,
2013-06-16 09:10:00,69.6,62.8,29.68,North,-999,0.0,4.5,79,0.00,,,-99.99,FreeWX 2.04,2013-06-16 13:10:00,
2013-06-16 09:15:00,69.4,62.2,29.68,North,-999,0.0,4.5,78,0.00,,,-99.99,FreeWX 2.04,2013-06-16 13:15:00,
2013-06-16 09:20:00,69.8,62.2,29.68,North,-999,0.0,2.7,77,0.00,,,-99.99,FreeWX 2.04,2013-06-16 13:20:00,
2013-06-16 09:25:00,70.9,63.3,29.68,North,-999,0.0,0.0,77,0.00,,,-99.99,FreeWX 2.04,2013-06-16 13:25:00,
2013-06-16 09:30:00,71.6,63.7,29.68,North,-999,0.0,4.9,76,0.00,,,-99.99,FreeWX 2.04,2013-06-16 13:30:00,
2013-06-16 09:35:00,70.3,58.5,29.68,North,-999,0.0,6.7,66,0.00,,,-99.99,FreeWX 2.04,2013-06-16 13:35:00,
2013-06-16 09:40:00,69.4,56.3,29.68,North,-999,0.0,4.9,63,0.00,,,-99.99,FreeWX 2.04,2013-06-16 13:40:00,
2013-06-16 09:45:00,69.3,57.0,29.68,North,-999,0.0,0.0,65,0.00,,,-99.99,FreeWX 2.04,2013-06-16 13:45:00,
2013-06-16 09:50:00,70.2,58.6,29.68,North,-999,0.0,0.0,67,0.00,,,-99.99,FreeWX 2.04,2013-06-16 13:50:00,
2013-06-16 09:55:00,71.4,59.0,29.68,North,-999,0.0,3.1,65,0.00,,,-99.99,FreeWX 2.04,2013-06-16 13:55:00,
2013-06-16 10:00:00,71.8,56.7,29.68,North,-999,0.0,6.3,59,0.00,,,-99.99,FreeWX 2.04,2013-06-16 14:00:00,
2013-06-16 10:05:00,72.1,56.5,29.68,North,-999,0.0,4.0,58,0.00,,,-99.99,FreeWX 2.04,2013-06-16 14:05:00,
2013-06-16 10:10:00,71.8,53.8,29.68,North,-999,0.0,4.5,53,0.00,,,-99.99,FreeWX 2.04,2013-06-16 14:10:00,
2013-06-16 10:15:00,71.6,54.1,29.68,North,-999,0.0,3.1,54,0.00,,,-99.99,FreeWX 2.04,2013-06-16 14:15:00,
2013-06-16 10:20:00,73.6,58.8,29.68,North,-999,0.0,4.5,60,0.00,,,-99.99,FreeWX 2.04,2013-06-16 14:20:00,
2013-06-16 10:25:00,75.9,54.9,29.68,North,-999,0.0,6.3,48,0.00,,,-99.99,FreeWX 2.04,2013-06-16 14:25:00,
2013-06-16 10:30:00,74.5,48.6,29.68,SSE,147,1.0,4.9,40,0.00,,,-99.99,FreeWX 2.04,2013-06-16 14:30:00,
2013-06-16 10:35:00,73.6,49.6,29.68,SSE,168,1.0,4.9,43,0.00,,,-99.99,FreeWX 2.04,2013-06-16 14:35:00,
2013-06-16 10:40:00,76.6,53.6,29.68,SSE,161,1.0,6.7,45,0.00,,,-99.99,FreeWX 2.04,2013-06-16 14:40:00,
2013-06-16 10:45:00,79.7,49.6,29.68,North,-999,0.0,3.6,35,0.00,,,-99.99,FreeWX 2.04,2013-06-16 14:45:00,
2013-06-16 10:50:00,79.3,46.9,29.68,SW,218,1.0,5.4,32,0.00,,,-99.99,FreeWX 2.04,2013-06-16 14:50:00,
2013-06-16 10:55:00,80.1,46.8,29.68,SW,233,1.0,4.5,31,0.00,,,-99.99,FreeWX 2.04,2013-06-16 14:55:00,
2013-06-16 11:00:00,82.8,47.3,29.68,SSW,194,1.0,5.4,29,0.00,,,-99.99,FreeWX 2.04,2013-06-16 15:00:00,
2013-06-16 11:05:00,84.0,47.3,29.68,NW,326,1.0,3.6,28,0.00,,,-99.99,FreeWX 2.04,2013-06-16 15:05:00,
2013-06-16 11:10:00,82.8,42.3,29.68,North,-999,0.0,5.4,24,0.00,,,-99.99,FreeWX 2.04,2013-06-16 15:10:00,
2013-06-16 11:15:00,84.0,45.5,29.68,North,-999,0.0,0.0,26,0.00,,,-99.99,FreeWX 2.04,2013-06-16 15:15:00,
2013-06-16 11:20:00,85.3,42.1,29.68,North,-999,0.0,6.7,22,0.00,,,-99.99,FreeWX 2.04,2013-06-16 15:20:00,
2013-06-16 11:25:00,86.0,41.5,29.68,SSE,152,1.0,5.8,21,0.00,,,-99.99,FreeWX 2.04,2013-06-16 15:25:00,
2013-06-16 11:30:00,84.6,39.0,29.68,ESE,107,1.0,5.8,20,0.00,,,-99.99,FreeWX 2.04,2013-06-16 15:30:00,
2013-06-16 11:35:00,81.9,43.5,29.68,SW,235,2.0,4.9,26,0.00,,,-99.99,FreeWX 2.04,2013-06-16 15:35:00,
2013-06-16 11:40:00,82.2,39.6,29.68,SW,233,2.0,7.4,22,0.00,,,-99.99,FreeWX 2.04,2013-06-16 15:40:00,
2013-06-16 11:45:00,81.7,45.3,29.68,SSW,194,1.0,6.3,28,0.00,,,-99.99,FreeWX 2.04,2013-06-16 15:45:00,
2013-06-16 11:50:00,84.4,41.4,29.68,SW,220,1.0,6.3,22,0.00,,,-99.99,FreeWX 2.04,2013-06-16 15:50:00,
2013-06-16 11:55:00,81.7,36.7,29.68,SE,124,3.0,7.4,20,0.00,,,-99.99,FreeWX 2.04,2013-06-16 15:55:00,
2013-06-16 12:00:00,80.1,37.8,29.68,ENE,63,3.0,5.8,22,0.00,,,-99.99,FreeWX 2.04,2013-06-16 16:00:00,
2013-06-16 12:05:00,78.4,36.5,29.71,NNE,14,2.0,4.5,22,0.00,,,-99.99,FreeWX 2.04,2013-06-16 16:05:00,
2013-06-16 12:10:00,77.4,39.7,29.71,North,357,1.0,4.0,26,0.00,,,-99.99,FreeWX 2.04,2013-06-16 16:10:00,
2013-06-16 12:15:00,74.8,39.6,29.71,NNE,19,1.0,5.4,28,0.00,,,-99.99,FreeWX 2.04,2013-06-16 16:15:00,
2013-06-16 12:20:00,73.9,41.4,29.71,NE,56,2.0,4.5,31,0.00,,,-99.99,FreeWX 2.04,2013-06-16 16:20:00,
2013-06-16 12:25:00,74.5,42.6,29.71,North,-999,0.0,0.0,32,0.00,,,-99.99,FreeWX 2.04,2013-06-16 16:25:00,
2013-06-16 12:31:00,75.7,43.0,29.71,ENE,68,1.0,5.4,31,0.00,,,-99.99,FreeWX 2.04,2013-06-16 16:31:00,
2013-06-16 12:36:00,76.1,43.3,29.71,East,98,2.0,5.4,31,0.00,,,-99.99,FreeWX 2.04,2013-06-16 16:36:00,
2013-06-16 12:41:00,73.8,40.5,29.71,East,95,3.0,6.3,30,0.00,,,-99.99,FreeWX 2.04,2013-06-16 16:41:00,
2013-06-16 12:46:00,73.2,42.4,29.71,ENE,72,3.0,4.0,33,0.00,,,-99.99,FreeWX 2.04,2013-06-16 16:46:00,
2013-06-16 12:51:00,75.4,43.5,29.71,ENE,74,1.0,3.6,32,0.00,,,-99.99,FreeWX 2.04,2013-06-16 16:51:00,
2013-06-16 12:56:00,76.8,43.0,29.71,ENE,78,1.0,4.0,30,0.00,,,-99.99,FreeWX 2.04,2013-06-16 16:56:00,
2013-06-16 13:01:00,77.2,42.4,29.71,ENE,75,1.0,4.0,29,0.00,,,-99.99,FreeWX 2.04,2013-06-16 17:01:00,
2013-06-16 13:06:00,77.4,40.8,29.71,North,-999,0.0,3.6,27,0.00,,,-99.99,FreeWX 2.04,2013-06-16 17:06:00,
2013-06-16 13:11:00,74.7,38.5,29.71,ENE,59,1.0,4.9,27,0.00,,,-99.99,FreeWX 2.04,2013-06-16 17:11:00,
2013-06-16 13:16:00,73.0,40.6,29.71,North,11,1.0,0.0,31,0.00,,,-99.99,FreeWX 2.04,2013-06-16 17:16:00,
2013-06-16 13:21:00,72.7,41.2,29.71,North,-999,0.0,3.1,32,0.00,,,-99.99,FreeWX 2.04,2013-06-16 17:21:00,
2013-06-16 13:26:00,72.9,42.1,29.71,North,-999,0.0,3.6,33,0.00,,,-99.99,FreeWX 2.04,2013-06-16 17:26:00,
2013-06-16 13:31:00,74.1,43.2,29.71,North,-999,0.0,4.9,33,0.00,,,-99.99,FreeWX 2.04,2013-06-16 17:31:00,
2013-06-16 13:36:00,75.4,44.2,29.71,North,-999,0.0,3.1,33,0.00,,,-99.99,FreeWX 2.04,2013-06-16 17:36:00,
2013-06-16 13:41:00,76.5,41.0,29.71,North,-999,0.0,5.8,28,0.00,,,-99.99,FreeWX 2.04,2013-06-16 17:41:00,
2013-06-16 13:46:00,76.6,42.8,29.71,SE,126,1.0,4.9,30,0.00,,,-99.99,FreeWX 2.04,2013-06-16 17:46:00,
2013-06-16 13:51:00,77.5,43.7,29.71,North,-999,0.0,5.4,30,0.00,,,-99.99,FreeWX 2.04,2013-06-16 17:51:00,
2013-06-16 13:56:00,79.0,42.1,29.71,North,-999,0.0,4.5,27,0.00,,,-99.99,FreeWX 2.04,2013-06-16 17:56:00,
2013-06-16 14:01:00,80.4,43.3,29.71,North,-999,0.0,0.0,27,0.00,,,-99.99,FreeWX 2.04,2013-06-16 18:01:00,
2013-06-16 14:06:00,81.3,41.0,29.71,North,-999,0.0,4.0,24,0.00,,,-99.99,FreeWX 2.04,2013-06-16 18:06:00,
2013-06-16 14:11:00,81.5,39.0,29.71,South,183,1.0,4.9,22,0.00,,,-99.99,FreeWX 2.04,2013-06-16 18:11:00,
2013-06-16 14:17:00,81.1,38.7,29.71,SSE,154,1.0,4.9,22,0.00,,,-99.99,FreeWX 2.04,2013-06-16 18:17:00,
2013-06-16 14:22:00,82.0,39.4,29.71,South,173,1.0,4.0,22,0.00,,,-99.99,FreeWX 2.04,2013-06-16 18:22:00,
2013-06-16 14:27:00,82.9,39.0,29.71,North,-999,0.0,3.6,21,0.00,,,-99.99,FreeWX 2.04,2013-06-16 18:27:00,
2013-06-16 14:32:00,81.9,38.1,29.71,SSW,209,1.0,5.4,21,0.00,,,-99.99,FreeWX 2.04,2013-06-16 18:32:00,
2013-06-16 14:37:00,80.8,38.3,29.71,SSW,199,2.0,6.7,22,0.00,,,-99.99,FreeWX 2.04,2013-06-16 18:37:00,
2013-06-16 14:42:00,81.1,38.7,29.71,South,181,1.0,3.1,22,0.00,,,-99.99,FreeWX 2.04,2013-06-16 18:42:00,
2013-06-16 14:47:00,81.5,39.0,29.71,North,-999,0.0,3.6,22,0.00,,,-99.99,FreeWX 2.04,2013-06-16 18:47:00,
2013-06-16 14:52:00,82.9,40.1,29.68,North,-999,0.0,3.6,22,0.00,,,-99.99,FreeWX 2.04,2013-06-16 18:52:00,
2013-06-16 14:57:00,83.5,39.4,29.68,North,-999,0.0,5.4,21,0.00,,,-99.99,FreeWX 2.04,2013-06-16 18:57:00,
2013-06-16 15:02:00,83.8,38.5,29.68,SW,232,1.0,4.9,20,0.00,,,-99.99,FreeWX 2.04,2013-06-16 19:02:00,
2013-06-16 15:07:00,83.3,39.2,29.68,WSW,255,1.0,4.0,21,0.00,,,-99.99,FreeWX 2.04,2013-06-16 19:07:00,
2013-06-16 15:12:00,82.6,37.4,29.68,WSW,256,1.0,4.9,20,0.00,,,-99.99,FreeWX 2.04,2013-06-16 19:12:00,
2013-06-16 15:17:00,81.5,36.5,29.68,SW,220,2.0,5.4,20,0.00,,,-99.99,FreeWX 2.04,2013-06-16 19:17:00,
2013-06-16 15:22:00,81.1,38.7,29.68,SW,226,1.0,4.5,22,0.00,,,-99.99,FreeWX 2.04,2013-06-16 19:22:00,
2013-06-16 15:27:00,81.0,38.5,29.68,South,169,1.0,4.9,22,0.00,,,-99.99,FreeWX 2.04,2013-06-16 19:27:00,
2013-06-16 15:32:00,81.3,38.8,29.68,SSE,152,1.0,5.4,22,0.00,,,-99.99,FreeWX 2.04,2013-06-16 19:32:00,
2013-06-16 15:37:00,80.1,38.8,29.68,South,172,1.0,6.3,23,0.00,,,-99.99,FreeWX 2.04,2013-06-16 19:37:00,
2013-06-16 15:42:00,81.1,40.8,29.68,SSE,166,1.0,4.9,24,0.00,,,-99.99,FreeWX 2.04,2013-06-16 19:42:00,
2013-06-16 15:47:00,80.8,38.3,29.68,North,-999,0.0,4.5,22,0.00,,,-99.99,FreeWX 2.04,2013-06-16 19:47:00,
2013-06-16 15:52:00,81.0,40.8,29.68,North,-999,0.0,5.8,24,0.00,,,-99.99,FreeWX 2.04,2013-06-16 19:52:00,
2013-06-16 15:57:00,79.0,37.9,29.68,North,-999,0.0,4.5,23,0.00,,,-99.99,FreeWX 2.04,2013-06-16 19:57:00,
2013-06-16 16:02:00,78.3,39.6,29.68,North,-999,0.0,4.9,25,0.00,,,-99.99,FreeWX 2.04,2013-06-16 20:02:00,
2013-06-16 16:07:00,78.1,42.3,29.68,East,95,1.0,4.9,28,0.00,,,-99.99,FreeWX 2.04,2013-06-16 20:07:00,
2013-06-16 16:12:00,76.8,41.2,29.68,ENE,76,1.0,5.4,28,0.00,,,-99.99,FreeWX 2.04,2013-06-16 20:12:00,
2013-06-16 16:17:00,75.9,43.2,29.68,North,-999,0.0,4.5,31,0.00,,,-99.99,FreeWX 2.04,2013-06-16 20:17:00,
2013-06-16 16:22:00,76.6,43.7,29.68,North,-999,0.0,0.0,31,0.00,,,-99.99,FreeWX 2.04,2013-06-16 20:22:00,
2013-06-16 16:27:00,75.6,42.8,29.68,North,-999,0.0,4.0,31,0.00,,,-99.99,FreeWX 2.04,2013-06-16 20:27:00,
2013-06-16 16:32:00,75.2,43.3,29.68,North,-999,0.0,3.6,32,0.00,,,-99.99,FreeWX 2.04,2013-06-16 20:32:00,
2013-06-16 16:37:00,76.8,46.2,29.68,North,-999,0.0,4.5,34,0.00,,,-99.99,FreeWX 2.04,2013-06-16 20:37:00,
2013-06-16 16:42:00,80.2,47.7,29.68,North,-999,0.0,0.0,32,0.00,,,-99.99,FreeWX 2.04,2013-06-16 20:42:00,
2013-06-16 16:47:00,80.2,43.2,29.68,North,-999,0.0,6.3,27,0.00,,,-99.99,FreeWX 2.04,2013-06-16 20:47:00,
2013-06-16 16:52:00,78.8,44.8,29.68,SW,226,1.0,4.5,30,0.00,,,-99.99,FreeWX 2.04,2013-06-16 20:52:00,
2013-06-16 17:02:00,78.6,37.8,29.68,North,-999,0.0,5.4,23,0.00,,,-99.99,FreeWX 2.04,2013-06-16 21:02:00,
2013-06-16 17:07:00,78.3,38.5,29.68,North,-999,0.0,0.0,24,0.00,,,-99.99,FreeWX 2.04,2013-06-16 21:07:00,
2013-06-16 17:12:00,80.2,41.2,29.68,North,-999,0.0,0.0,25,0.00,,,-99.99,FreeWX 2.04,2013-06-16 21:12:00,
2013-06-16 17:17:00,82.2,39.6,29.68,North,-999,0.0,3.6,22,0.00,,,-99.99,FreeWX 2.04,2013-06-16 21:17:00,
2013-06-16 17:22:00,81.0,37.4,29.68,North,-999,0.0,3.6,21,0.00,,,-99.99,FreeWX 2.04,2013-06-16 21:22:00,
2013-06-16 17:27:00,79.0,35.8,29.68,SW,235,2.0,4.9,21,0.00,,,-99.99,FreeWX 2.04,2013-06-16 21:27:00,
2013-06-16 17:32:00,80.1,35.4,29.68,West,271,2.0,4.9,20,0.00,,,-99.99,FreeWX 2.04,2013-06-16 21:32:00,
2013-06-16 17:37:00,79.9,35.2,29.68,WSW,249,1.0,5.4,20,0.00,,,-99.99,FreeWX 2.04,2013-06-16 21:37:00,
2013-06-16 17:42:00,79.7,35.1,29.68,SW,234,1.0,6.3,20,0.00,,,-99.99,FreeWX 2.04,2013-06-16 21:42:00,
2013-06-16 17:47:00,79.2,35.8,29.68,WSW,248,1.0,4.9,21,0.00,,,-99.99,FreeWX 2.04,2013-06-16 21:47:00,
2013-06-16 17:52:00,79.3,34.7,29.68,West,273,1.0,5.8,20,0.00,,,-99.99,FreeWX 2.04,2013-06-16 21:52:00,
2013-06-16 17:57:00,79.3,34.7,29.68,WNW,282,2.0,8.3,20,0.00,,,-99.99,FreeWX 2.04,2013-06-16 21:57:00,
2013-06-16 18:02:00,80.1,35.4,29.68,West,270,3.0,6.3,20,0.00,,,-99.99,FreeWX 2.04,2013-06-16 22:02:00,
2013-06-16 18:07:00,80.2,34.2,29.68,WSW,243,2.0,6.7,19,0.00,,,-99.99,FreeWX 2.04,2013-06-16 22:07:00,
2013-06-16 18:12:00,79.3,34.7,29.68,SSW,209,2.0,8.3,20,0.00,,,-99.99,FreeWX 2.04,2013-06-16 22:12:00,
2013-06-16 18:17:00,78.4,34.0,29.68,WSW,254,1.0,6.3,20,0.00,,,-99.99,FreeWX 2.04,2013-06-16 22:17:00,
2013-06-16 18:22:00,77.7,34.7,29.68,West,274,1.0,4.5,21,0.00,,,-99.99,FreeWX 2.04,2013-06-16 22:22:00,
2013-06-16 18:27:00,78.1,33.8,29.68,West,265,1.0,4.5,20,0.00,,,-99.99,FreeWX 2.04,2013-06-16 22:27:00,
2013-06-16 18:32:00,78.6,34.2,29.68,WSW,257,1.0,5.8,20,0.00,,,-99.99,FreeWX 2.04,2013-06-16 22:32:00,
2013-06-16 18:37:00,78.3,33.8,29.68,SW,233,1.0,6.3,20,0.00,,,-99.99,FreeWX 2.04,2013-06-16 22:37:00,
2013-06-16 18:42:00,77.7,33.4,29.68,North,-999,0.0,3.6,20,0.00,,,-99.99,FreeWX 2.04,2013-06-16 22:42:00,
2013-06-16 18:47:00,77.2,33.1,29.68,North,-999,0.0,2.7,20,0.00,,,-99.99,FreeWX 2.04,2013-06-16 22:47:00,
2013-06-16 18:52:00,77.0,32.9,29.68,North,-999,0.0,3.6,20,0.00,,,-99.99,FreeWX 2.04,2013-06-16 22:52:00,
2013-06-16 18:57:00,77.2,33.1,29.68,North,-999,0.0,4.0,20,0.00,,,-99.99,FreeWX 2.04,2013-06-16 22:57:00,
2013-06-16 19:02:00,77.4,34.3,29.68,South,186,1.0,9.2,21,0.00,,,-99.99,FreeWX 2.04,2013-06-16 23:02:00,
2013-06-16 19:07:00,74.3,32.9,29.71,SE,145,2.0,6.3,22,0.00,,,-99.99,FreeWX 2.04,2013-06-16 23:07:00,
2013-06-16 19:12:00,72.0,37.0,29.71,SE,140,2.0,7.8,28,0.00,,,-99.99,FreeWX 2.04,2013-06-16 23:12:00,
2013-06-16 19:17:00,70.5,40.1,29.71,ESE,103,2.0,7.4,33,0.00,,,-99.99,FreeWX 2.04,2013-06-16 23:17:00,
2013-06-16 19:22:00,70.3,39.9,29.71,East,89,2.0,5.8,33,0.00,,,-99.99,FreeWX 2.04,2013-06-16 23:22:00,
2013-06-16 19:27:00,69.3,39.7,29.71,ENE,78,2.0,6.7,34,0.00,,,-99.99,FreeWX 2.04,2013-06-16 23:27:00,
2013-06-16 19:32:00,67.8,39.9,29.71,ENE,64,2.0,5.8,36,0.00,,,-99.99,FreeWX 2.04,2013-06-16 23:32:00,
2013-06-16 19:37:00,66.6,39.6,29.71,East,86,1.0,6.3,37,0.00,,,-99.99,FreeWX 2.04,2013-06-16 23:37:00,
2013-06-16 19:42:00,66.0,41.0,29.71,ESE,110,1.0,4.9,40,0.00,,,-99.99,FreeWX 2.04,2013-06-16 23:42:00,
2013-06-16 19:47:00,65.3,42.3,29.71,ESE,105,1.0,5.4,43,0.00,,,-99.99,FreeWX 2.04,2013-06-16 23:47:00,
2013-06-16 19:52:00,64.9,42.4,29.71,ESE,103,1.0,4.9,44,0.00,,,-99.99,FreeWX 2.04,2013-06-16 23:52:00,
2013-06-16 19:57:00,64.8,43.0,29.71,North,-999,0.0,5.8,45,0.00,,,-99.99,FreeWX 2.04,2013-06-16 23:57:00,
2013-06-16 20:02:00,64.4,43.2,29.71,North,-999,0.0,6.3,46,0.00,,,-99.99,FreeWX 2.04,2013-06-17 00:02:00,
2013-06-16 20:07:00,64.2,43.5,29.71,SE,142,1.0,4.5,47,0.00,,,-99.99,FreeWX 2.04,2013-06-17 00:07:00,
2013-06-16 20:12:00,63.7,43.0,29.71,North,-999,0.0,0.0,47,0.00,,,-99.99,FreeWX 2.04,2013-06-17 00:12:00,
2013-06-16 20:17:00,63.5,43.0,29.71,North,-999,0.0,3.6,47,0.00,,,-99.99,FreeWX 2.04,2013-06-17 00:17:00,
2013-06-16 20:22:00,63.1,43.2,29.71,North,-999,0.0,0.0,48,0.00,,,-99.99,FreeWX 2.04,2013-06-17 00:22:00,
2013-06-16 20:27:00,63.3,43.9,29.71,North,-999,0.0,0.0,49,0.00,,,-99.99,FreeWX 2.04,2013-06-17 00:27:00,
2013-06-16 20:32:00,63.3,43.9,29.71,North,-999,0.0,0.0,49,0.00,,,-99.99,FreeWX 2.04,2013-06-17 00:32:00,
2013-06-16 20:37:00,63.3,43.9,29.71,North,-999,0.0,0.0,49,0.00,,,-99.99,FreeWX 2.04,2013-06-17 00:37:00,
2013-06-16 20:42:00,63.5,44.1,29.71,North,-999,0.0,0.0,49,0.00,,,-99.99,FreeWX 2.04,2013-06-17 00:42:00,
2013-06-16 20:47:00,63.5,43.5,29.71,North,-999,0.0,0.0,48,0.00,,,-99.99,FreeWX 2.04,2013-06-17 00:47:00,
2013-06-16 20:52:00,63.3,43.9,29.71,North,-999,0.0,0.0,49,0.00,,,-99.99,FreeWX 2.04,2013-06-17 00:52:00,
2013-06-16 20:57:00,63.3,43.9,29.71,North,-999,0.0,0.0,49,0.00,,,-99.99,FreeWX 2.04,2013-06-17 00:57:00,
2013-06-16 21:02:00,63.1,43.7,29.71,North,-999,0.0,0.0,49,0.00,,,-99.99,FreeWX 2.04,2013-06-17 01:02:00,
2013-06-16 21:07:00,63.0,43.5,29.71,North,-999,0.0,0.0,49,0.00,,,-99.99,FreeWX 2.04,2013-06-17 01:07:00,
2013-06-16 21:12:00,62.8,43.3,29.71,North,-999,0.0,0.0,49,0.00,,,-99.99,FreeWX 2.04,2013-06-17 01:12:00,
2013-06-16 21:17:00,62.4,44.6,29.71,North,-999,0.0,5.8,52,0.00,,,-99.99,FreeWX 2.04,2013-06-17 01:17:00,
2013-06-16 21:22:00,60.8,41.5,29.74,East,92,2.0,8.7,49,0.39,,,-99.99,FreeWX 2.04,2013-06-17 01:22:00,
2013-06-16 21:27:00,59.4,44.1,29.74,East,89,2.0,4.9,57,0.43,,,-99.99,FreeWX 2.04,2013-06-17 01:27:00,
2013-06-16 21:32:00,59.0,46.4,29.74,East,79,1.0,4.9,63,0.43,,,-99.99,FreeWX 2.04,2013-06-17 01:32:00,
2013-06-16 21:37:00,58.8,47.1,29.74,East,85,1.0,3.6,65,0.43,,,-99.99,FreeWX 2.04,2013-06-17 01:37:00,
2013-06-16 21:42:00,58.8,47.5,29.74,North,-999,0.0,3.6,66,0.43,,,-99.99,FreeWX 2.04,2013-06-17 01:42:00,
2013-06-16 21:47:00,58.6,48.0,29.74,North,-999,0.0,0.0,68,0.43,,,-99.99,FreeWX 2.04,2013-06-17 01:47:00,
2013-06-16 21:52:00,58.6,48.6,29.74,North,-999,0.0,0.0,69,0.43,,,-99.99,FreeWX 2.04,2013-06-17 01:52:00,
2013-06-16 21:57:00,58.8,49.1,29.74,North,-999,0.0,0.0,70,0.43,,,-99.99,FreeWX 2.04,2013-06-17 01:57:00,
2013-06-16 22:02:00,58.8,49.5,29.74,North,-999,0.0,0.0,71,0.43,,,-99.99,FreeWX 2.04,2013-06-17 02:02:00,
2013-06-16 22:07:00,59.0,49.6,29.74,North,-999,0.0,0.0,71,0.43,,,-99.99,FreeWX 2.04,2013-06-17 02:07:00,
2013-06-16 22:12:00,59.2,50.2,29.74,North,-999,0.0,0.0,72,0.43,,,-99.99,FreeWX 2.04,2013-06-17 02:12:00,
2013-06-16 22:17:00,58.8,50.2,29.74,North,-999,0.0,0.0,73,0.43,,,-99.99,FreeWX 2.04,2013-06-17 02:17:00,
2013-06-16 22:22:00,58.6,50.0,29.74,North,-999,0.0,0.0,73,0.00,,,-99.99,FreeWX 2.04,2013-06-17 02:22:00,
2013-06-16 22:27:00,58.6,50.4,29.74,North,-999,0.0,0.0,74,0.00,,,-99.99,FreeWX 2.04,2013-06-17 02:27:00,
2013-06-16 22:32:00,58.6,50.7,29.74,North,-999,0.0,0.0,75,0.00,,,-99.99,FreeWX 2.04,2013-06-17 02:32:00,
2013-06-16 22:37:00,58.6,51.4,29.74,North,-999,0.0,0.0,77,0.00,,,-99.99,FreeWX 2.04,2013-06-17 02:37:00,
2013-06-16 22:42:00,58.5,51.6,29.74,North,-999,0.0,0.0,78,0.00,,,-99.99,FreeWX 2.04,2013-06-17 02:42:00,